St. Johns, AZ

11:40 PM MST on October 21, 2019 (GMT -0700)
Saint Johns Industrial

Weather History for KSJN - August, 2019

Change the Weather History Date:

Saturday, August 17, 2019

  Actual Average (KLSB) Record (KLSB)
Temperature  
Mean Temperature 67 °F -  
Max Temperature 88 °F 93 °F 98 °F (2015)
Min Temperature 46 °F 61 °F 66 °F (2013)
Cooling Degree Days 2    
Growing Degree Days 17 (Base 50)    
Moisture  
Dew Point 35 °F    
Average Humidity 23    
Maximum Humidity 44    
Minimum Humidity 6    
Precipitation  
Precipitation 0.00 in - - ()
Sea Level Pressure  
Sea Level Pressure 29.80 in    
Wind  
Wind Speed 8 mph (WSW)    
Max Wind Speed 21 mph    
Max Gust Speed 32 mph    
Visibility 10 miles    
Events      
Averages and records for this station are not official NWS values.
T = Trace of Precipitation, MM = Missing Value Source: NWS Daily Summary

Daily Weather History Graph

Daily Weather History Graph

Search for Another Location

Airport or City:

Astronomy

Aug. 17, 2019 Rise Set
Actual Time 5:39 AM MST 7:02 PM MST
Civil Twilight 5:13 AM MST 7:29 PM MST
Nautical Twilight 4:41 AM MST 8:01 PM MST
Astronomical Twilight 4:08 AM MST 8:34 PM MST
Moon 8:36 PM MST (8/17) 7:28 AM MST (8/17)
Length of Visible Light 14h 16m
Length of Day
13h 23m
Waning Gibbous, 95% of the Moon is Illuminated
Aug 17
Waning Gibbous
Aug 23
Last Quarter
Aug 30
New
Sep 5
First Quarter
Sep 13
Full

Hourly Weather History & Observations

Time (MST) Temp. Dew Point Humidity Pressure Visibility Wind Dir Wind Speed Gust Speed Precip Events Conditions
12:54 AM 66.9 °F 33.1 °F 28% 29.81 in 10.0 mi SSW 8.1 mph - N/A   Clear
1:54 AM 64.9 °F 35.1 °F 33% 29.81 in 10.0 mi WSW 4.6 mph - N/A   Clear
2:54 AM 64.9 °F 36.0 °F 34% 29.80 in 10.0 mi Variable 3.5 mph - N/A   Clear
3:54 AM 64.9 °F 39.0 °F 39% 29.80 in 10.0 mi SW 4.6 mph - N/A   Clear
4:54 AM 64.0 °F 39.9 °F 41% 29.82 in 10.0 mi SE 4.6 mph - N/A   Clear
5:54 AM 62.1 °F 39.9 °F 44% 29.84 in 10.0 mi ESE 3.5 mph - N/A   Clear
6:54 AM 68.0 °F 41.0 °F 37% 29.86 in 10.0 mi Calm Calm - N/A   Clear
7:54 AM 73.9 °F 44.1 °F 34% 29.87 in 10.0 mi Calm Calm - N/A   Clear
8:54 AM 80.1 °F 46.9 °F 31% 29.86 in 10.0 mi WNW 8.1 mph - N/A   Clear
9:54 AM 82.0 °F 46.0 °F 28% 29.84 in 10.0 mi West 9.2 mph - N/A   Clear
10:54 AM 84.0 °F 39.9 °F 21% 29.83 in 10.0 mi WNW 10.4 mph 23.0 mph N/A   Clear
11:54 AM 87.1 °F 36.0 °F 16% 29.81 in 10.0 mi West 13.8 mph 25.3 mph N/A   Clear
12:54 PM 90.0 °F 30.0 °F 12% 29.78 in 10.0 mi West 13.8 mph 32.2 mph N/A   Clear
1:54 PM 90.0 °F 32.0 °F 13% 29.78 in 10.0 mi West 20.7 mph 27.6 mph N/A   Clear
2:54 PM 89.1 °F 34.0 °F 14% 29.76 in 10.0 mi South 6.9 mph 23.0 mph N/A   Clear
3:54 PM 90.0 °F 34.0 °F 14% 29.73 in 10.0 mi WSW 10.4 mph - N/A   Clear
4:54 PM 89.1 °F 30.0 °F 12% 29.73 in 10.0 mi West 17.3 mph 27.6 mph N/A   Partly Cloudy
5:54 PM 88.0 °F 25.0 °F 10% 29.73 in 10.0 mi WSW 13.8 mph - N/A   Clear
6:54 PM 82.9 °F 30.9 °F 15% 29.73 in 10.0 mi WSW 9.2 mph - N/A   Clear
7:54 PM 80.1 °F 33.1 °F 18% 29.74 in 10.0 mi WSW 12.7 mph - N/A   Clear
8:54 PM 75.9 °F 34.0 °F 22% 29.76 in 10.0 mi SW 12.7 mph - N/A   Clear
9:54 PM 73.9 °F 33.1 °F 22% 29.77 in 10.0 mi SW 17.3 mph - N/A   Clear
10:54 PM 73.0 °F 33.1 °F 23% 29.78 in 10.0 mi WSW 13.8 mph - N/A   Clear
11:54 PM 72.0 °F 33.1 °F 24% 29.78 in 10.0 mi WSW 9.2 mph - N/A   Clear